Asheville, NC

2:16 AM EDT on May 24, 2017 (GMT -0400)
Asheville Regional

Weather History for KAVL - March, 2008

Change the Weather History Date:

Friday, March 28, 2008

  Actual Average Record
Temperature  
Mean Temperature 58 °F 50 °F  
Max Temperature 72 °F 62 °F 86 °F (1907)
Min Temperature 44 °F 38 °F 11 °F (1877)
Degree Days  
Heating Degree Days 7 15  
Month to date heating degree days 521 511  
Since 1 July heating degree days 3504 3728  
Cooling Degree Days 0 0  
Month to date cooling degree days 0 0  
Year to date cooling degree days 0 0  
Growing Degree Days 8 (Base 50)    
Moisture  
Dew Point 47 °F    
Average Humidity 69    
Maximum Humidity 93    
Minimum Humidity 44    
Precipitation  
Precipitation T in 0.12 in 1.55 in (1980)
Month to date precipitation 4.19 3.45  
Year to date precipitation 10.54 10.88  
Snow  
Snow 0.00 in 0.10 in 0.50 in (1947)
Month to date snowfall T 1.8  
Since 1 July snowfall 3.8 9.1  
Snow Depth -    
Sea Level Pressure  
Sea Level Pressure 29.95 in    
Wind  
Wind Speed 7 mph (NW)    
Max Wind Speed 17 mph    
Max Gust Speed 25 mph    
Visibility 10 miles    
Events      
T = Trace of Precipitation, MM = Missing Value Source: NWS Daily Summary

Daily Weather History Graph

Daily Weather History Graph

Search for Another Location

Airport or City:

Trip Planner

Search our weather history database for the weather conditions in past years. The results will help you decide how hot, cold, wet, or windy it might be!

Date:

Astronomy

Mar. 28, 2008 Rise Set
Actual Time 7:21 AM EDT 7:48 PM EDT
Civil Twilight 6:56 AM EDT 8:14 PM EDT
Nautical Twilight 6:26 AM EDT 8:44 PM EDT
Astronomical Twilight 5:55 AM EDT 9:15 PM EDT
Moon 1:47 AM EDT (3/28) 11:09 AM EDT (3/28)
Length of Visible Light 13h 18m
Length of Day
12h 27m
Waning Gibbous, 62% of the Moon is Illuminated
Mar 28
Waning Gibbous
Mar 29
Last Quarter
Apr 5
New
Apr 12
First Quarter
Apr 20
Full

Hourly Weather History & Observations

Time (EDT) Temp. Dew Point Humidity Pressure Visibility Wind Dir Wind Speed Gust Speed Precip Events Conditions
12:54 AM 57.0 °F 43.0 °F 59% 29.91 in 10.0 mi South 10.4 mph - N/A   Clear
1:54 AM 57.0 °F 44.1 °F 62% 29.90 in 10.0 mi South 11.5 mph - N/A   Clear
2:54 AM 55.9 °F 45.0 °F 67% 29.89 in 10.0 mi South 8.1 mph - N/A   Clear
3:54 AM 55.0 °F 45.0 °F 69% 29.90 in 10.0 mi South 9.2 mph - N/A   Clear
4:54 AM 46.9 °F 42.1 °F 83% 29.91 in 10.0 mi NNW 6.9 mph - N/A   Clear
5:54 AM 46.9 °F 42.1 °F 83% 29.92 in 10.0 mi NNW 5.8 mph - N/A   Mostly Cloudy
6:54 AM 45.0 °F 42.1 °F 90% 29.93 in 10.0 mi Calm Calm - N/A   Clear
7:54 AM 46.0 °F 42.1 °F 86% 29.95 in 9.0 mi Calm Calm - N/A   Clear
8:54 AM 50.0 °F 44.1 °F 80% 29.96 in 9.0 mi Calm Calm - N/A   Clear
9:54 AM 57.9 °F 46.9 °F 67% 29.95 in 10.0 mi Variable 3.5 mph - N/A   Clear
10:54 AM 69.1 °F 46.0 °F 44% 29.95 in 10.0 mi WNW 15.0 mph 25.3 mph 0.00 in   Partly Cloudy
11:54 AM 70.0 °F 48.0 °F 46% 29.95 in 10.0 mi WNW 11.5 mph 20.7 mph N/A   Mostly Cloudy
12:54 PM 68.0 °F 48.9 °F 50% 29.96 in 10.0 mi NNW 10.4 mph - N/A   Overcast
1:54 PM 69.1 °F 48.9 °F 49% 29.95 in 10.0 mi WNW 8.1 mph - N/A   Overcast
2:54 PM 69.1 °F 50.0 °F 51% 29.95 in 10.0 mi WNW 9.2 mph - N/A   Overcast
3:54 PM 70.0 °F 50.0 °F 49% 29.94 in 10.0 mi NW 11.5 mph - N/A   Mostly Cloudy
4:54 PM 70.0 °F 48.9 °F 47% 29.95 in 10.0 mi WNW 8.1 mph - N/A   Overcast
5:54 PM 68.0 °F 48.9 °F 50% 29.96 in 10.0 mi NNW 10.4 mph - N/A   Overcast
6:54 PM 68.0 °F 48.0 °F 49% 29.97 in 10.0 mi NW 9.2 mph - N/A   Clear
7:54 PM 64.0 °F 48.0 °F 56% 29.99 in 10.0 mi WNW 6.9 mph - N/A   Clear
8:54 PM 62.1 °F 48.0 °F 60% 30.01 in 10.0 mi Calm Calm - N/A   Clear
9:54 PM 62.1 °F 48.9 °F 62% 30.02 in 10.0 mi NNE 3.5 mph - N/A   Overcast
10:54 PM 59.0 °F 50.0 °F 72% 30.03 in 10.0 mi NNW 5.8 mph - N/A   Mostly Cloudy
11:54 PM 55.9 °F 48.9 °F 77% 30.03 in 10.0 mi North 5.8 mph - N/A   Mostly Cloudy